Time,TemperatureF,DewpointF,PressureIn,WindDirection,WindDirectionDegrees,WindSpeedMPH,WindSpeedGustMPH,Humidity,HourlyPrecipIn,Conditions,Clouds,dailyrainin,SoftwareType,DateUTC
2013-04-28 00:13:00,73.9,66.0,30.11,NE,50,4.0,14.0,77,0.01,,,0.01,weatherlink.com 1.10,2013-04-28 04:13:00,
2013-04-28 00:28:00,74.3,66.0,30.11,East,86,5.0,14.0,75,0.01,,,0.01,weatherlink.com 1.10,2013-04-28 04:28:00,
2013-04-28 00:43:00,74.8,65.0,30.11,NE,44,5.0,18.0,72,0.01,,,0.01,weatherlink.com 1.10,2013-04-28 04:43:00,
2013-04-28 00:58:00,75.0,64.0,30.10,East,79,6.0,19.0,69,0.01,,,0.01,weatherlink.com 1.10,2013-04-28 04:58:00,
2013-04-28 01:13:00,75.0,64.0,30.10,East,87,8.0,15.0,69,0.00,,,0.01,weatherlink.com 1.10,2013-04-28 05:13:00,
2013-04-28 01:28:00,75.0,65.0,30.09,East,95,3.0,13.0,70,0.00,,,0.01,weatherlink.com 1.10,2013-04-28 05:28:00,
2013-04-28 01:43:00,75.0,64.0,30.09,ENE,72,8.0,17.0,69,0.00,,,0.01,weatherlink.com 1.10,2013-04-28 05:43:00,
2013-04-28 01:59:00,75.0,63.0,30.09,ESE,108,5.0,14.0,67,0.00,,,0.01,weatherlink.com 1.10,2013-04-28 05:59:00,
2013-04-28 02:13:00,75.0,64.0,30.08,East,90,13.0,22.0,68,0.00,,,0.01,weatherlink.com 1.10,2013-04-28 06:13:00,
2013-04-28 02:29:00,74.8,64.0,30.08,East,92,3.0,15.0,69,0.00,,,0.01,weatherlink.com 1.10,2013-04-28 06:29:00,
2013-04-28 02:44:00,74.8,64.0,30.07,East,79,5.0,14.0,68,0.00,,,0.01,weatherlink.com 1.10,2013-04-28 06:44:00,
2013-04-28 02:59:00,74.8,64.0,30.07,East,81,3.0,15.0,69,0.00,,,0.01,weatherlink.com 1.10,2013-04-28 06:59:00,
2013-04-28 03:14:00,74.6,64.0,30.07,ESE,103,8.0,16.0,69,0.00,,,0.01,weatherlink.com 1.10,2013-04-28 07:14:00,
2013-04-28 03:29:00,74.6,63.0,30.07,ESE,107,4.0,17.0,68,0.00,,,0.01,weatherlink.com 1.10,2013-04-28 07:29:00,
2013-04-28 03:45:00,74.6,63.0,30.07,East,92,3.0,17.0,68,0.00,,,0.01,weatherlink.com 1.10,2013-04-28 07:45:00,
2013-04-28 03:59:00,74.6,63.0,30.06,ENE,73,8.0,17.0,68,0.00,,,0.01,weatherlink.com 1.10,2013-04-28 07:59:00,
2013-04-28 04:14:00,74.5,63.0,30.05,East,91,5.0,17.0,67,0.00,,,0.01,weatherlink.com 1.10,2013-04-28 08:14:00,
2013-04-28 04:29:00,74.6,64.0,30.05,East,96,9.0,12.0,70,0.00,,,0.01,weatherlink.com 1.10,2013-04-28 08:29:00,
2013-04-28 04:44:00,74.5,64.0,30.05,East,95,7.0,16.0,69,0.00,,,0.01,weatherlink.com 1.10,2013-04-28 08:44:00,
2013-04-28 04:59:00,74.5,64.0,30.05,East,92,1.0,13.0,69,0.00,,,0.01,weatherlink.com 1.10,2013-04-28 08:59:00,
2013-04-28 05:14:00,74.6,64.0,30.05,East,81,8.0,18.0,69,0.00,,,0.01,weatherlink.com 1.10,2013-04-28 09:14:00,
2013-04-28 05:29:00,74.5,64.0,30.04,ENE,74,9.0,11.0,69,0.00,,,0.01,weatherlink.com 1.10,2013-04-28 09:29:00,
2013-04-28 05:44:00,74.6,64.0,30.04,East,90,3.0,13.0,69,0.00,,,0.01,weatherlink.com 1.10,2013-04-28 09:44:00,
2013-04-28 05:59:00,74.5,63.0,30.04,East,90,2.0,17.0,68,0.00,,,0.01,weatherlink.com 1.10,2013-04-28 09:59:00,
2013-04-28 06:14:00,74.6,63.0,30.05,ESE,109,4.0,17.0,68,0.00,,,0.01,weatherlink.com 1.10,2013-04-28 10:14:00,
2013-04-28 06:29:00,74.6,63.0,30.05,ESE,106,3.0,13.0,68,0.00,,,0.01,weatherlink.com 1.10,2013-04-28 10:29:00,
2013-04-28 06:44:00,74.6,63.0,30.06,ENE,69,2.0,18.0,67,0.00,,,0.01,weatherlink.com 1.10,2013-04-28 10:44:00,
2013-04-28 06:59:00,74.8,63.0,30.06,ESE,110,4.0,16.0,67,0.00,,,0.01,weatherlink.com 1.10,2013-04-28 10:59:00,
2013-04-28 07:14:00,74.6,63.0,30.07,East,93,3.0,14.0,67,0.00,,,0.01,weatherlink.com 1.10,2013-04-28 11:14:00,
2013-04-28 07:29:00,75.0,63.0,30.07,ENE,62,9.0,14.0,66,0.00,,,0.01,weatherlink.com 1.10,2013-04-28 11:29:00,
2013-04-28 07:44:00,75.5,63.0,30.07,East,101,2.0,18.0,66,0.00,,,0.01,weatherlink.com 1.10,2013-04-28 11:44:00,
2013-04-28 07:59:00,75.7,63.0,30.07,East,92,5.0,18.0,65,0.00,,,0.01,weatherlink.com 1.10,2013-04-28 11:59:00,
2013-04-28 08:14:00,75.7,63.0,30.07,East,79,17.0,22.0,64,0.00,,,0.01,weatherlink.com 1.10,2013-04-28 12:14:00,
2013-04-28 08:32:00,76.4,63.0,30.07,ENE,71,19.0,19.0,64,0.00,,,0.01,weatherlink.com 1.10,2013-04-28 12:32:00,
2013-04-28 08:44:00,76.6,63.0,30.07,East,100,4.0,21.0,64,0.00,,,0.01,weatherlink.com 1.10,2013-04-28 12:44:00,
2013-04-28 08:59:00,76.9,64.0,30.09,East,85,15.0,17.0,64,0.00,,,0.01,weatherlink.com 1.10,2013-04-28 12:59:00,
2013-04-28 09:14:00,77.1,63.0,30.09,SE,141,3.0,23.0,63,0.00,,,0.01,weatherlink.com 1.10,2013-04-28 13:14:00,
2013-04-28 09:29:00,77.3,63.0,30.09,East,90,16.0,18.0,62,0.00,,,0.01,weatherlink.com 1.10,2013-04-28 13:29:00,
2013-04-28 09:44:00,77.6,63.0,30.09,East,92,1.0,18.0,61,0.00,,,0.01,weatherlink.com 1.10,2013-04-28 13:44:00,
2013-04-28 09:59:00,78.0,62.0,30.10,SE,133,2.0,19.0,58,0.00,,,0.01,weatherlink.com 1.10,2013-04-28 13:59:00,
2013-04-28 10:14:00,77.6,62.0,30.10,SSE,150,5.0,19.0,59,0.00,,,0.01,weatherlink.com 1.10,2013-04-28 14:14:00,
2013-04-28 10:29:00,77.5,62.0,30.10,East,83,11.0,23.0,60,0.00,,,0.01,weatherlink.com 1.10,2013-04-28 14:29:00,
2013-04-28 10:44:00,78.4,64.0,30.10,ESE,119,1.0,19.0,61,0.00,,,0.01,weatherlink.com 1.10,2013-04-28 14:44:00,
2013-04-28 10:59:00,78.2,63.0,30.10,East,95,7.0,21.0,59,0.00,,,0.01,weatherlink.com 1.10,2013-04-28 14:59:00,
2013-04-28 11:14:00,78.0,62.0,30.10,SE,143,4.0,21.0,59,0.00,,,0.01,weatherlink.com 1.10,2013-04-28 15:14:00,
2013-04-28 11:29:00,78.0,63.0,30.10,NNE,28,0.0,19.0,60,0.00,,,0.01,weatherlink.com 1.10,2013-04-28 15:29:00,
2013-04-28 11:44:00,78.7,63.0,30.09,ENE,73,7.0,20.0,58,0.00,,,0.01,weatherlink.com 1.10,2013-04-28 15:44:00,
2013-04-28 11:59:00,78.9,62.0,30.09,East,94,7.0,21.0,57,0.00,,,0.01,weatherlink.com 1.10,2013-04-28 15:59:00,
2013-04-28 12:14:00,78.9,63.0,30.10,ESE,106,11.0,19.0,58,0.00,,,0.01,weatherlink.com 1.10,2013-04-28 16:14:00,
2013-04-28 12:29:00,78.0,63.0,30.10,East,82,16.0,19.0,60,0.00,,,0.01,weatherlink.com 1.10,2013-04-28 16:29:00,
2013-04-28 12:44:00,78.0,63.0,30.10,East,101,4.0,21.0,60,0.00,,,0.01,weatherlink.com 1.10,2013-04-28 16:44:00,
2013-04-28 12:59:00,78.2,63.0,30.10,ESE,104,15.0,16.0,60,0.00,,,0.01,weatherlink.com 1.10,2013-04-28 16:59:00,
2013-04-28 13:14:00,78.4,63.0,30.10,East,86,10.0,19.0,59,0.00,,,0.01,weatherlink.com 1.10,2013-04-28 17:14:00,
2013-04-28 13:29:00,78.9,62.0,30.09,ENE,73,10.0,17.0,56,0.00,,,0.01,weatherlink.com 1.10,2013-04-28 17:29:00,
2013-04-28 13:44:00,79.5,62.0,30.09,ESE,108,7.0,17.0,56,0.00,,,0.01,weatherlink.com 1.10,2013-04-28 17:44:00,
2013-04-28 13:59:00,78.7,63.0,30.09,East,95,1.0,19.0,58,0.00,,,0.01,weatherlink.com 1.10,2013-04-28 17:59:00,
2013-04-28 14:14:00,78.9,62.0,30.09,ESE,120,8.0,17.0,57,0.00,,,0.01,weatherlink.com 1.10,2013-04-28 18:14:00,
2013-04-28 14:29:00,78.5,63.0,30.08,East,93,11.0,21.0,59,0.00,,,0.01,weatherlink.com 1.10,2013-04-28 18:29:00,
2013-04-28 14:44:00,79.5,64.0,30.07,SE,127,6.0,21.0,59,0.00,,,0.01,weatherlink.com 1.10,2013-04-28 18:44:00,
2013-04-28 14:59:00,79.1,63.0,30.07,East,91,12.0,18.0,58,0.00,,,0.01,weatherlink.com 1.10,2013-04-28 18:59:00,
2013-04-28 15:14:00,79.1,62.0,30.06,ESE,103,17.0,21.0,57,0.00,,,0.01,weatherlink.com 1.10,2013-04-28 19:14:00,
2013-04-28 15:29:00,79.3,63.0,30.05,East,89,13.0,19.0,57,0.00,,,0.01,weatherlink.com 1.10,2013-04-28 19:29:00,
2013-04-28 15:44:00,78.5,63.0,30.05,East,97,4.0,23.0,59,0.00,,,0.01,weatherlink.com 1.10,2013-04-28 19:44:00,
2013-04-28 15:59:00,78.7,63.0,30.04,East,97,1.0,21.0,59,0.00,,,0.01,weatherlink.com 1.10,2013-04-28 19:59:00,
2013-04-28 16:14:00,78.5,63.0,30.03,East,99,8.0,22.0,59,0.00,,,0.01,weatherlink.com 1.10,2013-04-28 20:14:00,
2013-04-28 16:29:00,79.1,64.0,30.03,East,87,9.0,19.0,60,0.00,,,0.01,weatherlink.com 1.10,2013-04-28 20:29:00,
2013-04-28 16:45:00,78.4,65.0,30.02,SE,146,6.0,19.0,63,0.00,,,0.01,weatherlink.com 1.10,2013-04-28 20:45:00,
2013-04-28 17:00:00,78.0,64.0,30.02,East,81,22.0,23.0,62,0.00,,,0.01,weatherlink.com 1.10,2013-04-28 21:00:00,
2013-04-28 17:15:00,78.4,64.0,30.02,NNE,15,0.0,22.0,61,0.00,,,0.01,weatherlink.com 1.10,2013-04-28 21:15:00,
2013-04-28 17:30:00,78.2,64.0,30.01,SE,136,7.0,19.0,62,0.00,,,0.01,weatherlink.com 1.10,2013-04-28 21:30:00,
2013-04-28 17:45:00,77.8,64.0,30.01,ENE,63,7.0,24.0,62,0.00,,,0.01,weatherlink.com 1.10,2013-04-28 21:45:00,
2013-04-28 18:00:00,77.8,64.0,30.01,ESE,104,11.0,21.0,62,0.00,,,0.01,weatherlink.com 1.10,2013-04-28 22:00:00,
2013-04-28 18:15:00,77.5,63.0,30.00,ESE,102,3.0,17.0,61,0.00,,,0.01,weatherlink.com 1.10,2013-04-28 22:15:00,
2013-04-28 18:30:00,77.8,63.0,30.00,East,87,5.0,15.0,60,0.00,,,0.01,weatherlink.com 1.10,2013-04-28 22:30:00,
2013-04-28 18:45:00,77.5,61.0,30.00,ESE,106,2.0,18.0,58,0.00,,,0.01,weatherlink.com 1.10,2013-04-28 22:45:00,
2013-04-28 19:00:00,77.5,62.0,30.00,East,94,7.0,16.0,59,0.00,,,0.01,weatherlink.com 1.10,2013-04-28 23:00:00,
2013-04-28 19:15:00,77.3,62.0,30.00,ESE,107,2.0,10.0,59,0.00,,,0.01,weatherlink.com 1.10,2013-04-28 23:15:00,
2013-04-28 19:30:00,76.9,62.0,30.00,ENE,75,6.0,13.0,61,0.00,,,0.01,weatherlink.com 1.10,2013-04-28 23:30:00,
2013-04-28 19:45:00,76.7,62.0,30.00,East,81,5.0,14.0,60,0.00,,,0.01,weatherlink.com 1.10,2013-04-28 23:45:00,
2013-04-28 20:00:00,76.6,62.0,30.00,East,95,2.0,11.0,61,0.00,,,0.01,weatherlink.com 1.10,2013-04-29 00:00:00,
2013-04-28 20:15:00,76.4,61.0,30.00,East,90,5.0,12.0,60,0.00,,,0.01,weatherlink.com 1.10,2013-04-29 00:15:00,
2013-04-28 20:30:00,76.2,62.0,30.01,ESE,117,4.0,11.0,61,0.00,,,0.01,weatherlink.com 1.10,2013-04-29 00:30:00,
2013-04-28 20:45:00,76.2,61.0,30.01,ESE,118,1.0,11.0,60,0.00,,,0.01,weatherlink.com 1.10,2013-04-29 00:45:00,
2013-04-28 21:00:00,76.4,61.0,30.01,East,90,5.0,11.0,60,0.00,,,0.01,weatherlink.com 1.10,2013-04-29 01:00:00,
2013-04-28 21:15:00,76.4,61.0,30.01,East,84,6.0,14.0,59,0.00,,,0.01,weatherlink.com 1.10,2013-04-29 01:15:00,
2013-04-28 21:30:00,76.4,60.0,30.01,ESE,110,5.0,12.0,58,0.00,,,0.01,weatherlink.com 1.10,2013-04-29 01:30:00,
2013-04-28 21:45:00,76.4,60.0,30.01,East,90,9.0,9.0,58,0.00,,,0.01,weatherlink.com 1.10,2013-04-29 01:45:00,
2013-04-28 22:00:00,76.6,61.0,30.02,ESE,104,3.0,10.0,59,0.00,,,0.01,weatherlink.com 1.10,2013-04-29 02:00:00,
2013-04-28 22:15:00,76.7,60.0,30.02,East,90,5.0,12.0,56,0.00,,,0.01,weatherlink.com 1.10,2013-04-29 02:15:00,
2013-04-28 22:30:00,76.7,61.0,30.03,SE,131,5.0,12.0,58,0.00,,,0.01,weatherlink.com 1.10,2013-04-29 02:30:00,
2013-04-28 22:45:00,76.4,62.0,30.02,ESE,122,5.0,10.0,61,0.00,,,0.01,weatherlink.com 1.10,2013-04-29 02:45:00,
2013-04-28 23:00:00,76.6,63.0,30.02,ESE,110,4.0,14.0,62,0.00,,,0.01,weatherlink.com 1.10,2013-04-29 03:00:00,
2013-04-28 23:15:00,76.6,62.0,30.03,SE,138,2.0,15.0,61,0.00,,,0.01,weatherlink.com 1.10,2013-04-29 03:15:00,
2013-04-28 23:30:00,76.6,63.0,30.02,ESE,117,0.0,14.0,63,0.00,,,0.01,weatherlink.com 1.10,2013-04-29 03:30:00,
2013-04-28 23:45:00,76.4,62.0,30.02,ESE,122,6.0,16.0,61,0.00,,,0.01,weatherlink.com 1.10,2013-04-29 03:45:00,